Regional Weather Roundup
Issued by NWS

Home | Current Version | Previous Version | Graphics & Text | Print | Product List | Glossary Off
Versions: 1 2 3 4 5 6 7 8 9 10 11 12 13 14 15 16 17 18 19 20 21 22 23 24 25 26 27 28 29 30 31 32 33 34 35 36 37 38 39 40 41 42 43 44 45 46 47 48 49 50

316
ASUS43 KTOP 232108
RWRKS

WEATHER ROUNDUP FOR KANSAS
NATIONAL WEATHER SERVICE GOODLAND KS
400 PM CDT SUN APR 23 2017

NOTE:  "FAIR" INDICATES FEW OR NO CLOUDS BELOW 12,000 FEET WITH NO
SIGNIFICANT WEATHER AND/OR OBSTRUCTIONS TO VISIBILITY.

KSZ001>006-013>018-027>032-041>047-232200-
NORTHWEST KANSAS

CITY           SKY/WX    TMP DP  RH WIND       PRES   REMARKS
GOODLAND       CLOUDY    68  39  34 S30G39    29.88F
HILL CITY      MOSUNNY   72  28  19 S25G32    29.96F
RUSSELL        SUNNY     69  36  29 S20G28    30.01F
$$

KSZ061>065-074>080-084>089-232200-
SOUTHWEST KANSAS

CITY           SKY/WX    TMP DP  RH WIND       PRES   REMARKS
DODGE CITY     SUNNY     68  32  26 S22G30    30.02F
ELKHART          N/A     68  37  32 S25         N/A
GARDEN CITY    SUNNY     67  34  29 S23G31    29.98F
GREAT BEND     SUNNY     66  38  35 S14       30.04F
PRATT          SUNNY     65  31  28 S13       30.07F
$$

KSZ066>073-081>083-090>101-232200-
SOUTHEAST KANSAS

CITY           SKY/WX    TMP DP  RH WIND       PRES   REMARKS
CHANUTE        SUNNY     68  39  34 VRB5      30.09F
COFFEYVILLE    SUNNY     69  39  33 N7        30.09F
HUTCHINSON     SUNNY     67  32  27 SE7       30.08F
MEDICINE LODGE   N/A     67  32  27 S12       30.07F
NEWTON         SUNNY     65  35  33 S6        30.11F
PARSONS        SUNNY     68  37  32 N3        30.10F
WICHITA INTL   MOSUNNY   66  36  32 SE3       30.10F
WICHITA JABRA  SUNNY     67  32  27 S6        30.09F
WICHITA MCCONL SUNNY     67  33  28 W5        30.09F HAZE
WINFIELD       SUNNY     66  37  34 CALM      30.11F
$$

KSZ007>012-019>026-033>040-048>060-102>105-232200-
NORTHEAST KANSAS

CITY           SKY/WX    TMP DP  RH WIND       PRES   REMARKS
CONCORDIA      SUNNY     67  40  37 S13       30.03F
EMPORIA        SUNNY     67  35  30 SW6       30.09F
LAWRENCE       SUNNY     70  31  23 VRB3      30.08F
MANHATTAN      SUNNY     70  34  26 SW12      30.07F
MARYSVILLE     SUNNY     70  34  26 S12G20    30.02F
OLATHE IND     SUNNY     69  34  27 W5        30.09F
OLATHE EXE     SUNNY     67  31  26 CALM      30.08F
SALINA         SUNNY     69  37  30 SE14      30.06F
TOPEKA BILLARD SUNNY     70  33  25 SW6       30.07F
TOPEKA FORBES  SUNNY     71  34  25 S5        30.08F
$$




USA.gov is the U.S. government's official web portal to all federal, state and local government web resources and services.